Hourly Weather Barra

Today, 19 June, Saturday

Time Temperature Precipitation Wind Pressure Humidity
00:00 +17°C° 0 mm 3 mps 751 mmHg 60%
01:00 +17°C° 0 mm 3 mps 751 mmHg 59%
02:00 +16°C° 0 mm 3 mps 751 mmHg 57%
03:00 +16°C° 0 mm 3 mps 751 mmHg 56%
04:00 +14°C° 0 mm 3 mps 751 mmHg 57%
05:00 +14°C° 0 mm 3 mps 751 mmHg 58%
06:00 +13°C° 0 mm 3 mps 751 mmHg 59%
07:00 +13°C° 0 mm 3 mps 752 mmHg 60%
08:00 +16°C° 0 mm 3 mps 752 mmHg 54%
09:00 +18°C° 0 mm 3 mps 752 mmHg 48%
10:00 +21°C° 0 mm 2 mps 752 mmHg 42%
11:00 +22°C° 0 mm 3 mps 752 mmHg 40%
12:00 +22°C° 0 mm 3 mps 751 mmHg 39%
13:00 +24°C° 0 mm 3 mps 751 mmHg 37%
14:00 +24°C° 0 mm 3 mps 750 mmHg 40%
15:00 +22°C° 0 mm 3 mps 750 mmHg 42%
16:00 +22°C° 0 mm 3 mps 750 mmHg 45%
17:00 +20°C° 0 mm 3 mps 750 mmHg 51%
18:00 +18°C° 0 mm 2 mps 750 mmHg 57%
19:00 +17°C° 0 mm 2 mps 751 mmHg 63%
20:00 +17°C° 0 mm 2 mps 751 mmHg 63%
21:00 +16°C° 0 mm 2 mps 752 mmHg 62%
22:00 +16°C° 0 mm 3 mps 752 mmHg 62%
23:00 +16°C° 0 mm 3 mps 752 mmHg 61%

Tomorrow, 20 June, Sunday

Time Temperature Precipitation Wind Pressure Humidity
00:00 +14°C° 0 mm 3 mps 752 mmHg 61%
01:00 +14°C° 0 mm 3 mps 751 mmHg 61%
02:00 +14°C° 0 mm 3 mps 751 mmHg 60%
03:00 +13°C° 0 mm 3 mps 751 mmHg 59%
04:00 +13°C° 0 mm 3 mps 751 mmHg 58%
05:00 +13°C° 0 mm 3 mps 751 mmHg 58%
06:00 +13°C° 0 mm 2 mps 751 mmHg 57%
07:00 +13°C° 0 mm 2 mps 752 mmHg 56%
08:00 +16°C° 0 mm 2 mps 752 mmHg 50%
09:00 +18°C° 0 mm 2 mps 752 mmHg 43%
10:00 +21°C° 0 mm 1 mps 753 mmHg 37%
11:00 +21°C° 0 mm 2 mps 752 mmHg 36%
12:00 +23°C° 0 mm 2 mps 752 mmHg 35%
13:00 +22°C° 0 mm 3 mps 751 mmHg 34%
14:00 +23°C° 0 mm 2 mps 751 mmHg 37%
15:00 +21°C° 0 mm 2 mps 751 mmHg 39%
16:00 +21°C° 0 mm 2 mps 750 mmHg 42%
17:00 +19°C° 0 mm 2 mps 751 mmHg 49%
18:00 +17°C° 0 mm 2 mps 751 mmHg 56%
19:00 +16°C° 0 mm 2 mps 752 mmHg 63%
20:00 +15°C° 0 mm 2 mps 752 mmHg 64%
21:00 +15°C° 0 mm 2 mps 752 mmHg 65%
22:00 +14°C° 0 mm 2 mps 753 mmHg 67%
23:00 +14°C° 0 mm 2 mps 752 mmHg 67%

Day after tomorrow, 21 June, Monday

Time Temperature Precipitation Wind Pressure Humidity
00:00 +14°C° 0 mm 2 mps 752 mmHg 67%
01:00 +14°C° 0 mm 2 mps 752 mmHg 67%
02:00 +14°C° 0 mm 2 mps 752 mmHg 68%
03:00 +14°C° 0 mm 2 mps 752 mmHg 70%
04:00 +13°C° 0 mm 2 mps 751 mmHg 71%
05:00 +13°C° 0 mm 2 mps 752 mmHg 72%
06:00 +13°C° 0 mm 2 mps 752 mmHg 74%
07:00 +13°C° 0 mm 2 mps 752 mmHg 75%
08:00 +16°C° 0 mm 2 mps 753 mmHg 69%
09:00 +18°C° 0 mm 2 mps 753 mmHg 62%
10:00 +21°C° 0 mm 2 mps 753 mmHg 55%
11:00 +23°C° 0 mm 2 mps 753 mmHg 55%
12:00 +22°C° 0 mm 3 mps 752 mmHg 55%
13:00 +24°C° 0 mm 3 mps 752 mmHg 54%
14:00 +24°C° 0 mm 3 mps 752 mmHg 57%
15:00 +22°C° 0 mm 3 mps 751 mmHg 59%
16:00 +22°C° 0 mm 3 mps 751 mmHg 62%
17:00 +20°C° 0 mm 3 mps 752 mmHg 68%
18:00 +19°C° 0 mm 2 mps 752 mmHg 75%
19:00 +17°C° 0 mm 2 mps 753 mmHg 81%
20:00 +17°C° 0 mm 2 mps 753 mmHg 82%
21:00 +16°C° 0 mm 2 mps 753 mmHg 82%
22:00 +16°C° 0 mm 2 mps 753 mmHg 82%
23:00 +15°C° 0 mm 2 mps 753 mmHg 82%

22 June, Tuesday

Time Temperature Precipitation Wind Pressure Humidity
00:00 +15°C° 0 mm 2 mps 753 mmHg 82%
01:00 +15°C° 0 mm 2 mps 753 mmHg 82%
02:00 +15°C° 0 mm 2 mps 753 mmHg 83%
03:00 +15°C° 0 mm 2 mps 753 mmHg 83%
04:00 +13°C° 0 mm 3 mps 752 mmHg 83%
05:00 +14°C° 0 mm 3 mps 753 mmHg 83%
06:00 +14°C° 0 mm 3 mps 753 mmHg 83%
07:00 +14°C° 0 mm 3 mps 754 mmHg 83%
08:00 +17°C° 0 mm 3 mps 754 mmHg 80%
09:00 +18°C° 0 mm 3 mps 754 mmHg 77%
10:00 +20°C° 0 mm 3 mps 754 mmHg 75%
11:00 +21°C° 0.1 mm 4 mps 754 mmHg 73%
12:00 +22°C° 0.1 mm 4 mps 753 mmHg 72%
13:00 +22°C° 0.1 mm 5 mps 753 mmHg 70%
14:00 +22°C° 0.1 mm 5 mps 753 mmHg 72%
15:00 +22°C° 0.1 mm 5 mps 752 mmHg 74%
16:00 +22°C° 0.1 mm 5 mps 752 mmHg 76%
17:00 +21°C° 0.1 mm 5 mps 752 mmHg 80%
18:00 +20°C° 0.1 mm 5 mps 753 mmHg 84%
19:00 +20°C° 0.1 mm 5 mps 753 mmHg 87%
20:00 +20°C° 0.2 mm 5 mps 753 mmHg 88%
21:00 +20°C° 0.2 mm 5 mps 753 mmHg 89%
22:00 +20°C° 0.2 mm 5 mps 754 mmHg 90%
23:00 +20°C° 0.2 mm 5 mps 753 mmHg 90%

23 June, Wednesday

Time Temperature Precipitation Wind Pressure Humidity
00:00 +19°C° 0.2 mm 5 mps 753 mmHg 91%
01:00 +19°C° 0.2 mm 5 mps 753 mmHg 91%
02:00 +19°C° 0.2 mm 5 mps 753 mmHg 92%
03:00 +19°C° 0.2 mm 4 mps 752 mmHg 92%
04:00 +19°C° 0.2 mm 4 mps 752 mmHg 92%
05:00 +19°C° 0.1 mm 4 mps 752 mmHg 93%
06:00 +19°C° 0.1 mm 4 mps 753 mmHg 93%
07:00 +19°C° 0.1 mm 4 mps 753 mmHg 93%
08:00 +20°C° 0.1 mm 4 mps 753 mmHg 91%
09:00 +21°C° 0.1 mm 4 mps 753 mmHg 88%
10:00 +22°C° 0.1 mm 3 mps 754 mmHg 86%
11:00 +24°C° 0.1 mm 3 mps 753 mmHg 81%
12:00 +25°C° 0.1 mm 3 mps 753 mmHg 75%
13:00 +25°C° 0.1 mm 4 mps 752 mmHg 70%
14:00 +25°C° 0 mm 3 mps 752 mmHg 68%
15:00 +25°C° 0 mm 3 mps 751 mmHg 66%
16:00 +25°C° 0 mm 3 mps 751 mmHg 64%
17:00 +24°C° 0 mm 3 mps 751 mmHg 72%
18:00 +21°C° 0 mm 3 mps 752 mmHg 80%
19:00 +20°C° 0 mm 2 mps 752 mmHg 87%
20:00 +20°C° 0.1 mm 2 mps 752 mmHg 89%
21:00 +19°C° 0.1 mm 2 mps 752 mmHg 91%
22:00 +19°C° 0.1 mm 2 mps 752 mmHg 92%
23:00 +19°C° 0.3 mm 2 mps 752 mmHg 92%

24 June, Thursday

Time Temperature Precipitation Wind Pressure Humidity
00:00 +20°C° 0.3 mm 2 mps 752 mmHg 92%
01:00 +20°C° 0.3 mm 2 mps 751 mmHg 91%
02:00 +20°C° 0.3 mm 2 mps 751 mmHg 92%
03:00 +20°C° 0.3 mm 2 mps 751 mmHg 93%
04:00 +20°C° 0.3 mm 3 mps 750 mmHg 94%
05:00 +20°C° 0.3 mm 2 mps 750 mmHg 94%
06:00 +20°C° 0.3 mm 2 mps 750 mmHg 94%
07:00 +20°C° 0.3 mm 2 mps 751 mmHg 95%
08:00 +21°C° 0.4 mm 3 mps 751 mmHg 93%
09:00 +21°C° 0.4 mm 3 mps 751 mmHg 92%
10:00 +22°C° 0.4 mm 3 mps 751 mmHg 90%
11:00 +22°C° 0.5 mm 3 mps 751 mmHg 88%
12:00 +24°C° 0.5 mm 3 mps 751 mmHg 86%
13:00 +24°C° 0.5 mm 3 mps 750 mmHg 84%
14:00 +24°C° 0.5 mm 3 mps 750 mmHg 85%
15:00 +23°C° 0.5 mm 4 mps 750 mmHg 86%
16:00 +23°C° 0.5 mm 4 mps 749 mmHg 87%
17:00 +22°C° 0.4 mm 3 mps 749 mmHg 90%
18:00 +21°C° 0.4 mm 3 mps 750 mmHg 92%
19:00 +21°C° 0.4 mm 2 mps 750 mmHg 94%
20:00 +21°C° 0.3 mm 2 mps 750 mmHg 94%
21:00 +21°C° 0.3 mm 2 mps 751 mmHg 94%
22:00 +21°C° 0.3 mm 2 mps 751 mmHg 94%
23:00 +21°C° 0.2 mm 2 mps 750 mmHg 94%
Show more